TIME,DELAY(SENSOR),PRES,T(CTD),SAL,OXYGEN,RAWTEMP,T(OPTODE),TCPHASE,TURBIDITY,TURBIDITY_GAIN,FLUOR,BETA,CDOM,ED411.5,ED443.8,ED489.6,PAR,COMP,TILT,TILTY(TILT),CHECK
1342026112,6469,260.1300048828125000,4.9134998321533200,34.9863014221191400,349.8241882324219000,761.4600830078125000,4.8851618766784670,34.1093215942382800,16,3,48,103,63,2147245206,2147561819,2147571299,2147361933,2130,0,-12,38956
1342026173,6468,256.9200134277344000,4.9130001068115230,34.9864997863769500,349.8333129882812500,761.4537963867188000,4.8853859901428220,34.1089210510253900,16,3,50,107,64,2147243066,2147565023,2147571848,2147363186,1644,0,-12,13483
1342026234,6467,253.6199951171875000,4.9133000373840330,34.9859008789062500,349.8222961425781000,761.4550170898438000,4.8853440284729000,34.1092987060546900,16,3,49,102,64,2147244621,2147560726,2147573942,2147358719,1089,0,-11,65067
1342026295,6468,250.3999938964843800,4.9128999710083010,34.9861984252929700,349.6933898925781000,761.4586791992188000,4.8852138519287110,34.1137886047363300,16,3,49,108,64,2147243565,2147561306,2147573001,2147361439,456,0,-12,48295
1342026356,6466,247.2100067138672000,4.9130997657775880,34.9855995178222660,349.8653869628906000,761.4655151367188000,4.8849768638610840,34.1081504821777340,11,3,48,104,64,2147244296,2147560108,2147570486,2147361042,3159,0,-12,55633
1342026417,6467,244.0099945068359400,4.9121999740600590,34.9861984252929700,349.8641052246094000,761.4682006835938000,4.8848819732666020,34.1081085205078100,16,3,49,113,64,2147245183,2147561004,2147571267,2147361458,2437,0,-12,64056
1342026478,6467,240.8500061035156200,4.9120998382568360,34.9861984252929700,349.8747863769531000,761.4710083007812000,4.8847851753234860,34.1077117919921900,16,3,49,102,65,2147243602,2147559158,2147575094,2147361357,1858,0,-12,49761
1342026539,6465,237.6699981689453000,4.9117999076843260,34.9863014221191400,349.9453125000000000,761.4801025390625000,4.8844637870788570,34.1058807373046900,16,3,48,104,63,2147241211,2147559830,2147575067,2147363826,1327,0,-12,26140
1342026600,6468,234.5099945068359400,4.9116001129150390,34.9863014221191400,349.8814086914062500,761.4854736328125000,4.8842768669128420,34.1077995300293000,16,3,49,101,64,2147243985,2147559592,2147572461,2147363825,731,0,-12,40057
1342026661,6503,231.4199981689453000,4.9109997749328610,34.9866981506347660,349.8475036621094000,761.4926147460938000,4.8840289115905760,34.1091384887695300,16,3,50,104,64,2147242857,2147562211,2147571227,2147359803,3557,0,-12,10224
1342026724,6467,228.2500000000000000,4.9113001823425290,34.9860000610351560,350.0332946777344000,761.4990234375000000,4.8838038444519040,34.1030502319335940,16,3,49,106,65,2147240315,2147560429,2147571826,2147361434,2743,0,-12,65065
1342026785,6468,225.1699981689453000,4.9107999801635740,34.9864997863769500,350.0358886718750000,761.5064697265625000,4.8835391998291020,34.1030197143554700,16,3,50,104,64,2147242189,2147560576,2147577750,2147360886,2095,0,-12,26999
1342026848,6466,221.9799957275390600,4.9105000495910645,34.9863014221191400,350.1059875488281000,761.5151977539062000,4.8832359313964840,34.1007804870605500,16,3,48,102,64,2147242865,2147560973,2147576543,2147363999,1616,0,-12,15128
1342026909,6467,218.9299926757812500,4.9106001853942870,34.9860000610351560,350.0614013671875000,761.5197753906250000,4.8830738067626950,34.1022911071777340,16,3,49,113,65,2147245311,2147561005,2147575062,2147360643,1090,0,-12,5333
1342026972,6468,215.7700042724609400,4.9107999801635740,34.9856986999511700,350.1213073730469000,761.5264892578125000,4.8828392028808590,34.1004791259765600,16,3,48,102,64,2147241014,2147559656,2147575601,2147360265,382,0,-12,59670
1342027033,6468,212.7700042724609400,4.9102001190185550,34.9860992431640600,350.0873107910156000,761.5307006835938000,4.8826937675476070,34.1017913818359400,16,3,49,103,64,2147241722,2147562129,2147575766,2147361448,3172,0,-12,55970
1342027096,6466,209.6600036621093800,4.9096999168396000,34.9863014221191400,350.0604858398437500,761.5377807617188000,4.8824439048767090,34.1027793884277340,31,3,48,105,64,2147241376,2147562751,2147579844,2147362628,2498,0,-12,40131
1342027157,6469,206.6600036621093800,4.9099001884460450,34.9859008789062500,350.1470031738281000,761.5435180664062000,4.8822441101074220,34.1001396179199200,16,3,48,103,65,2147244035,2147562079,2147579638,2147361755,2051,0,-12,51969
1342027220,6467,203.5200042724609400,4.9095001220703125,34.9860992431640600,350.2008056640625000,761.5496826171875000,4.8820290565490720,34.0983886718750000,16,3,50,102,66,2147241910,2147560374,2147584475,2147364274,1624,0,-12,17815
1342027281,6467,200.5099945068359400,4.9092998504638670,34.9860000610351560,350.1358032226562500,761.5582275390625000,4.8817329406738280,34.1007690429687500,16,3,48,104,64,2147241705,2147563112,2147589581,2147363176,1214,0,-12,48166
1342027344,6468,197.4199981689453000,4.9091000556945800,34.9860000610351560,350.2850952148437500,761.5632934570312000,4.8815541267395020,34.0957298278808600,16,3,49,111,66,2147243756,2147562669,2147590541,2147365521,705,0,-12,39483
1342027405,6464,194.4700012207031200,4.9088001251220700,34.9860000610351560,350.2640991210937500,761.5690917968750000,4.8813481330871580,34.0966415405273440,16,3,49,106,64,2147242157,2147567144,2147594079,2147361535,2456,0,-12,19516
1342027468,6469,191.4799957275390600,4.9085998535156250,34.9860992431640600,350.2947082519531000,761.5759887695312000,4.8811049461364750,34.0956611633300800,16,3,48,102,64,2147242193,2147561723,2147596968,2147366303,2839,0,-12,60526
1342027529,6469,188.6600036621093800,4.9084000587463380,34.9864006042480500,350.2936096191406000,761.5781250000000000,4.8810348510742190,34.0958213806152340,16,3,48,107,64,2147244813,2147562024,2147601681,2147364333,2320,0,-12,58433
1342027592,6468,185.8099975585937500,4.9084000587463380,34.9860000610351560,350.3685913085937500,761.5817260742188000,4.8809089660644530,34.0932998657226560,16,3,48,106,63,2147245951,2147558980,2147605755,2147364237,1858,0,-12,22485
1342027653,6468,183.0500030517578000,4.9079999923706055,34.9861984252929700,350.3586120605469000,761.5883789062500000,4.8806738853454590,34.0936508178710940,16,3,49,108,64,2147242614,2147562083,2147606893,2147365101,1408,0,-12,36377
1342027716,6468,180.3099975585937500,4.9077000617980960,34.9864006042480500,350.2827148437500000,761.5966186523438000,4.8803839683532715,34.0966606140136700,16,3,48,102,64,2147241896,2147563775,2147610943,2147365330,934,0,-12,28677
1342027777,6468,177.7100067138672000,4.9070000648498535,34.9868011474609400,350.3193054199219000,761.5983276367188000,4.8803291320800780,34.0954399108886700,16,3,49,104,64,2147243176,2147564593,2147613809,2147367368,340,0,-12,57295
1342027840,6466,175.0700073242187500,4.9074997901916500,34.9860992431640600,350.4896850585937500,761.6057739257812000,4.8800659179687500,34.0896682739257800,16,3,49,102,64,2147240872,2147563076,2147616301,2147366778,3138,0,-12,49760
1342027901,6466,172.5599975585937500,4.9071002006530760,34.9864006042480500,350.4184875488281000,761.6083984375000000,4.8799738883972170,34.0922317504882800,16,3,49,110,63,2147243254,2147564356,2147620301,2147365425,2553,0,-12,31631
1342027964,6466,170.0000000000000000,4.9071002006530760,34.9861984252929700,350.3208007812500000,761.6098022460938000,4.8799228668212890,34.0956802368164060,16,3,49,104,64,2147240443,2147564653,2147622464,2147365133,2029,0,-12,62733
1342028025,6465,167.6100006103515600,4.9070000648498535,34.9861984252929700,350.3955993652344000,761.6129760742188000,4.8798117637634280,34.0932617187500000,16,3,49,106,64,2147244480,2147563423,2147620397,2147367487,1671,0,-12,57235
1342028116,6469,163.3699951171875000,4.9070000648498535,34.9860000610351560,350.3713073730469000,761.6378784179688000,4.8789410591125490,34.0944099426269500,16,3,48,106,64,2147243081,2147564268,2147623894,2147367862,810,0,-12,56395
1342028177,6467,159.7400054931640600,4.9065999984741210,34.9864997863769500,350.3948059082031000,761.6354980468750000,4.8790249824523930,34.0934104919433600,16,3,50,109,64,2147243346,2147563291,2147628881,2147366061,3357,0,-12,39936
1342028240,6466,155.9499969482422000,4.9067997932434080,34.9860992431640600,350.3561096191406000,761.6337280273438000,4.8790860176086430,34.0948295593261700,10,3,49,112,64,2147243066,2147565507,2147633956,2147370961,2348,0,-12,8772
1342028301,6468,152.3099975585937500,4.9071998596191410,34.9860000610351560,350.1340942382812500,761.6284790039062000,4.8792710304260250,34.1024208068847660,16,3,49,122,64,2147243533,2147567281,2147639404,2147371011,1653,0,-12,8708
1342028364,6466,148.5000000000000000,4.9071002006530760,34.9859008789062500,350.1243896484375000,761.6339111328125000,4.8790798187255860,34.1026992797851560,16,3,50,113,64,2147244525,2147568378,2147651834,2147371044,954,0,-12,43479
1342028425,6469,144.8200073242187500,4.9064002037048340,34.9863014221191400,350.1785888671875000,761.6394042968750000,4.8788871765136720,34.1010398864746100,16,3,50,112,63,2147244150,2147572410,2147660150,2147371455,3534,0,-12,38259
1342028513,6468,140.0899963378906200,4.9064002037048340,34.9860000610351560,349.8688049316406000,761.6447143554688000,4.8786997795104980,34.1115913391113300,16,3,50,109,64,2147245645,2147572310,2147678185,2147372314,2498,0,-12,60183
1342028574,6467,137.6600036621093800,4.9061999320983890,34.9861984252929700,349.9453125000000000,761.6367187500000000,4.8789830207824710,34.1087112426757800,16,3,48,114,64,2147245179,2147575789,2147690363,2147378074,2128,0,-12,30032
1342028637,6468,135.2100067138672000,4.9072999954223630,34.9860992431640600,349.8021850585937500,761.5961303710938000,4.8804039955139160,34.1127014160156250,16,3,50,114,64,2147247602,2147574404,2147706902,2147378248,1733,0,-12,18015
1342028698,6467,132.8300018310547000,4.9088001251220700,34.9858016967773440,349.6675109863281000,761.5753784179688000,4.8811302185058590,34.1170310974121100,12,3,49,115,64,2147243145,2147578102,2147715519,2147381810,1358,0,-12,57225
1342028786,6468,128.7500000000000000,4.9081001281738280,34.9864006042480500,349.4829101562500000,761.5880737304688000,4.8806819915771480,34.1235389709472660,16,3,50,118,65,2147245247,2147583378,2147730125,2147384662,478,0,-12,8770
1342028847,6468,125.1399993896484400,4.9081997871398930,34.9861984252929700,349.5111999511719000,761.5844116210938000,4.8808140754699710,34.1221504211425800,16,3,50,116,64,2147247752,2147585028,2147746834,2147385338,3052,0,-12,16287
1342028910,6469,121.3300018310546900,4.9099998474121090,34.9856986999511700,349.3890991210937500,761.5438232421875000,4.8822350502014160,34.1255187988281250,11,3,50,120,64,2147244402,2147588027,2147767167,2147389585,2265,0,-12,34372
1342028971,6467,117.6800003051757800,4.9124999046325680,34.9854011535644500,349.3276062011719000,761.4832763671875000,4.8843522071838380,34.1267204284668000,16,3,50,125,64,2147246088,2147593439,2147796319,2147394614,1627,0,-12,29312
1342029059,6468,112.9499969482421900,4.9124999046325680,34.9855995178222660,349.1029052734375000,761.4708251953125000,4.8847899436950680,34.1338005065918000,16,3,50,116,65,2147245942,2147600904,2147837594,2147399419,847,0,-12,2184
1342029120,6468,110.5699996948242200,4.9135999679565430,34.9858016967773440,349.1918029785156000,761.4182128906250000,4.8866348266601560,34.1297798156738300,16,3,50,119,64,2147243985,2147607999,2147874166,2147406056,347,0,-12,38880
1342029183,6465,108.1999969482421900,4.9152998924255370,34.9854011535644500,349.1592102050781000,761.3806762695312000,4.8879427909851070,34.1301383972168000,16,3,50,122,64,2147250344,2147618070,2147910618,2147413974,3346,0,-12,30459
1342029244,6466,105.9800033569336000,4.9159998893737790,34.9855995178222660,349.1116027832031000,761.3497924804688000,4.8890290260314940,34.1311302185058600,16,3,50,118,65,2147249476,2147626756,2147952905,2147419693,2809,0,-12,40376
1342029332,6467,102.1500015258789000,4.9175000190734860,34.9851989746093750,349.1590881347656000,761.3300170898438000,4.8897209167480470,34.1291999816894500,16,3,50,121,65,2147255455,2147640493,2148026787,2147432808,2158,0,-12,21831
1342029393,6467,98.6900024414062500,4.9198999404907230,34.9850006103515600,349.2033996582031000,761.2730712890625000,4.8917121887207030,34.1266212463378900,16,3,50,125,64,2147257453,2147655172,2148093828,2147441659,1631,0,-12,7157
1342029456,6468,95.1200027465820300,4.9207000732421875,34.9855003356933600,348.9704895019531000,761.2147216796875000,4.8937568664550780,34.1332397460937500,16,3,50,124,64,2147257494,2147669517,2148154569,2147456498,1025,0,-12,1616
1342029517,6467,91.6699981689453100,4.9240999221801760,34.9849014282226560,349.0899963378906000,761.1455078125000000,4.8961768150329590,34.1278800964355500,16,3,50,123,64,2147259876,2147688442,2148224324,2147471350,225,0,-12,17289
1342029580,6502,88.1399993896484400,4.9263000488281250,34.9849014282226560,349.0421142578125000,761.0789184570312000,4.8985118865966800,34.1284103393554700,16,3,51,127,64,2147265691,2147705055,2148301380,2147485000,2677,0,-12,40260
1342029641,6467,84.7200012207031200,4.9300999641418460,34.9854011535644500,349.0022888183594000,760.9622802734375000,4.9025940895080570,34.1272583007812500,16,3,50,127,64,2147270070,2147723130,2148386893,2147503939,2033,0,-12,34463
1342029704,6468,81.2099990844726600,4.9355001449584960,34.9846992492675800,348.9840087890625000,760.8220214843750000,4.9075031280517580,34.1251106262207000,16,3,51,136,64,2147274906,2147744886,2148459245,2147523693,1516,0,-12,51333
1342029765,6468,77.8700027465820300,4.9432001113891600,34.9847984313964840,348.8645019531250000,760.5681762695312000,4.9163880348205570,34.1238708496093750,16,3,51,128,64,2147282011,2147771428,2148564187,2147548013,917,0,-12,62077
1342029828,6468,74.4499969482421900,4.9569001197814940,34.9847984313964840,348.6755065917969000,760.2078857421875000,4.9289951324462890,34.1235389709472660,16,3,52,130,66,2147293955,2147804186,2148676653,2147574733,78,0,-12,4279
1342029889,6468,71.1299972534179700,4.9637999534606930,34.9850997924804700,348.6146850585937500,760.0059814453125000,4.9360580444335940,34.1212882995605500,16,3,54,132,66,2147309535,2147852058,2148841585,2147614783,2837,0,-12,2272
1342029952,6467,67.7799987792968800,4.9759001731872560,34.9850006103515600,348.4341125488281000,759.6552124023438000,4.9483342170715330,34.1206398010253900,16,3,54,129,66,2147327798,2147898326,2149016406,2147665626,2230,0,-12,36163
1342030013,6504,64.6500015258789000,4.9772000312805180,34.9855995178222660,348.4303894042969000,759.5847167968750000,4.9507999420166020,34.1194000244140600,16,3,54,128,64,2147341467,2147945361,2149156818,2147705353,1728,0,-12,10245
1342030076,6467,61.4700012207031250,5.0331997871398930,34.9851989746093750,347.8669128417969000,757.9956054687500000,5.0063719749450680,34.1072616577148440,16,3,62,131,65,2147362468,2147990847,2149311949,2147756968,1036,0,-12,37000
1342030137,6466,58.4300003051757800,5.0553002357482910,34.9863014221191400,348.1040039062500000,757.4290771484375000,5.0261731147766110,34.0877113342285160,14,3,65,133,64,2147384643,2148033859,2149435186,2147804584,458,0,-12,3011
1342030200,6465,55.5099983215332000,5.0862002372741700,34.9866981506347660,347.9678955078125000,756.5349731445312000,5.0574169158935550,34.0749015808105500,16,3,68,137,65,2147415766,2148083153,2149589554,2147866980,3327,0,-12,16626
1342030261,6468,52.7700004577636700,5.2481999397277830,34.9916000366210940,346.9888916015625000,752.4437255859375000,5.2002320289611820,34.0275611877441400,15,3,78,144,66,2147439565,2148118788,2149687478,2147916579,2278,0,-12,27836
1342030324,6465,50.0600013732910160,5.2649002075195310,34.9921989440918000,347.9767150878906000,751.5985107421875000,5.2297058105468750,33.9777603149414060,34,3,86,148,65,2147469453,2148150537,2149785896,2147974632,1589,0,-12,18000
1342030385,6467,47.5200004577636700,5.2809000015258790,34.9931983947753900,348.3092956542969000,750.9885253906250000,5.2509708404541020,33.9543685913085940,17,3,96,160,66,2147492548,2148162444,2149820492,2148019881,1097,0,-12,37341
1342030448,6468,44.9900016784668000,5.3197999000549320,34.9934997558593750,348.4049072265625000,749.8461303710938000,5.2907772064208980,33.9292793273925800,32,3,119,158,66,2147539222,2148213827,2149986143,2148111441,513,0,-12,37543
1342030509,6469,42.4500007629394500,5.3836998939514160,34.9953994750976560,348.6099853515625000,748.0626831054688000,5.3528861999511720,33.8875007629394500,19,3,149,165,66,2147583802,2148255396,2150099282,2148197471,3154,0,-12,62952
1342030572,6468,39.6599998474121100,5.4948000907897950,34.9981994628906250,349.0929870605469000,744.8214111328125000,5.4656448364257810,33.8084793090820300,22,3,187,191,66,2147721302,2148443588,2150613375,2148433357,2809,0,-10,3362
1342030633,6469,36.7000007629394500,5.6621999740600590,35.0004997253418000,350.2463073730469000,740.2105712890625000,5.6257781982421875,33.6810417175293000,27,3,247,234,65,2147913128,2148713699,2151328013,2148755272,2751,0,-11,44180
1342030696,6470,33.1100006103515600,5.7256999015808105,35.0026016235351560,352.2344970703125000,738.2974243164062000,5.6921348571777340,33.5778388977050800,31,3,286,265,65,2148425234,2149422797,2153063437,2149505965,2357,0,-10,51475
1342030757,6470,29.2500000000000000,5.9956998825073240,34.9992980957031250,352.4736938476562500,731.1168212890625000,5.9407119750976560,33.4337806701660160,48,3,407,340,65,2149363561,2150677466,2155748447,2150698472,1489,0,-12,59747
1342030845,6471,25.8199996948242200,6.3259000778198240,35.0023002624511700,359.9466857910156000,721.7913818359375000,6.2624440193176270,33.0148696899414060,59,3,491,436,64,2150401955,2152000251,2158566673,2151976666,967,0,-12,59785
1342030993,6470,22.6399993896484380,6.3706002235412600,35.0145988464355500,365.2286071777344000,720.2703247070312000,6.3148097991943360,32.8179016113281250,60,3,521,477,66,2151424232,2152829992,2158072168,2151864410,1022,0,-12,19471
1342031054,6468,18.9699993133544920,6.7087001800537110,34.9944000244140600,364.8709106445312500,706.6918945312500000,6.7808251380920410,32.5810394287109400,70,3,544,497,66,2157428022,2160348438,2172288543,2158444364,996,0,-12,55141
1342031117,6470,17.5900001525878900,8.4657001495361330,34.9875984191894500,364.8424987792969000,666.1821899414062000,8.1565904617309570,31.8697891235351560,85,3,598,535,64,2155839039,2157709498,2165872173,2155595446,1165,0,-11,47570
1342031279,6469,16.8299999237060550,9.2435998916625980,35.0368995666503900,371.1892089843750000,633.2006225585938000,9.2616043090820310,31.1236305236816400,92,3,650,516,64,2157730079,2160114971,2171025357,2157976863,2903,2,-12,62781
1342031477,6470,11.9099998474121100,10.0412998199462890,35.0433998107910160,370.2811889648437500,608.0261840820312000,10.0966196060180660,30.7461795806884770,82,3,671,545,61,2182083670,2187447775,2207623323,2176543634,2016,0,-11,37655
1342031540,6471,9.8199996948242190,11.0343999862670900,35.0116004943847660,363.1333923339844000,582.3524169921875000,10.9412002563476560,30.5618095397949220,104,3,535,484,63,2193601393,2200319757,2222492941,2184719217,1950,0,-12,3219
1342031614,6505,8.6700000762939450,11.4404001235961910,35.0532989501953100,358.0508117675781000,567.7103881835938000,11.4198999404907230,30.4937191009521500,93,3,472,475,61,2203416790,2211139867,2234951702,2191975688,1752,0,-12,18231
1342031700,6469,7.0599999427795410,11.4681997299194340,35.0563011169433600,357.2828979492187500,566.0280151367188000,11.4747695922851560,30.4920291900634770,83,3,369,479,60,2225963963,2235814116,2260869600,2208112562,1228,2,-6,27432
1342031753,6468,4.8600001335144040,11.4809999465942380,35.0601005554199200,356.9697875976562500,565.8463134765625000,11.4806900024414060,30.4988594055175780,90,3,262,492,64,2258445170,2270167743,2297145512,2234442294,3034,-7,0,60610
1342031819,6469,26.0000000000000000,0.0000000000000000,0.0000000000000000,357.0452880859375000,565.5875854492188000,11.4891195297241210,30.4926109313964840,83,3,211,473,61,2321222916,2338068762,2357639117,2299590513,1144,2,-13,3383
1342031857,6465,4.0000000000000000,0.0000000000000000,0.0000000000000000,357.0415954589844000,566.0750122070312000,11.4732398986816400,30.5001392364501950,87,3,174,454,49,2363730124,2383114893,2407774129,2358786660,2215,2,-7,64416
